Tracking 28052 objects as of 25-Sep-2023
HD Live streaming from Space Station
objects crossing your sky now

SL-8 DEB

Track SL-8 DEB now!
10-day predictions


NORAD ID: 39840
Int'l Code: 1991-009DY
Perigee: 983.8 km
Apogee: 1,161.6 km
Inclination: 73.8 °
Period: 106.5 minutes
Semi major axis: 7443 km
RCS: 0.0175 m2 (small)
Launch date: February 12, 1991
Source: Commonwealth of Independent States (former USSR) (CIS)
Launch site: PLESETSK MISSILE AND SPACE COMPLEX (PKMTR)

Note: This is SATELLITE DEBRIS
Your satellite tracking list
Your tracking list is empty




NASA's NSSDC Master Catalog

Two Line Element Set (TLE):
1 39840U 91009DY  23266.39620434  .00005288  00000-0  77554-2 0  9996
2 39840  73.8007 282.9006 0119455 215.9267 208.7269 13.51826003458476
Source of the keplerian elements: AFSPC